BRJ107 LFMN-EHAM

Flight info

Callsign BRJ107
Flight time 1h 19m
Altitude 43000
Route IRMAR DCT KINES DCT VANAS DCT MOBLO DCT UBIMA DCT GILIR DCT PENDU DCT IXILU DCT EPL DCT ROUSY DCT BUB Y28 HELEN
Aircraft C750/M-SBDE3FGHRWXY/S

Departure

Time 2026-05-04 17:52
Airport Nice-Côte d'Azur Airport (LFMN)

Arrival

Time 2026-05-04 19:11
Airport Amsterdam Airport Schiphol (EHAM)
Time Latitude Longitude Altitude Speed Heading
2026-05-04 17:30 43.67157 7.22584 18 ft 0 kts 313°
2026-05-04 17:31 43.67156 7.22584 18 ft 0 kts 313°
2026-05-04 17:36 43.67156 7.22585 18 ft 0 kts 313°
2026-05-04 17:43 43.67157 7.22583 18 ft 1 kts 314°
2026-05-04 17:43 43.67161 7.22578 18 ft 1 kts 314°
2026-05-04 17:43 43.67163 7.22575 18 ft 0 kts 319°
2026-05-04 17:44 43.67164 7.22574 18 ft 1 kts 323°
2026-05-04 17:44 43.67171 7.22584 20 ft 3 kts 64°
2026-05-04 17:44 43.67133 7.22613 18 ft 11 kts 177°
2026-05-04 17:44 43.67058 7.22605 18 ft 10 kts 184°
2026-05-04 17:45 43.66988 7.22569 18 ft 13 kts 222°
2026-05-04 17:45 43.66914 7.22467 18 ft 17 kts 225°
2026-05-04 17:45 43.66817 7.22336 18 ft 22 kts 227°
2026-05-04 17:45 43.66697 7.22172 18 ft 27 kts 224°
2026-05-04 17:46 43.66563 7.21987 18 ft 27 kts 224°
2026-05-04 17:46 43.66435 7.21804 18 ft 26 kts 223°
2026-05-04 17:46 43.66308 7.21633 18 ft 25 kts 225°
2026-05-04 17:46 43.66187 7.21469 18 ft 24 kts 226°
2026-05-04 17:47 43.66057 7.21290 18 ft 29 kts 225°
2026-05-04 17:47 43.65905 7.21081 18 ft 33 kts 225°
2026-05-04 17:47 43.65736 7.20850 18 ft 34 kts 224°
2026-05-04 17:47 43.65573 7.20626 18 ft 32 kts 227°
2026-05-04 17:48 43.65418 7.20409 18 ft 30 kts 225°
2026-05-04 17:48 43.65283 7.20304 19 ft 19 kts 153°
2026-05-04 17:48 43.65190 7.20420 19 ft 17 kts 133°
2026-05-04 17:48 43.65091 7.20476 19 ft 15 kts 194°
2026-05-04 17:49 43.65003 7.20379 19 ft 17 kts 225°
2026-05-04 17:49 43.64919 7.20266 19 ft 16 kts 225°
2026-05-04 17:49 43.64828 7.20240 19 ft 14 kts 142°
2026-05-04 17:49 43.64768 7.20330 19 ft 12 kts 122°
2026-05-04 17:50 43.64790 7.20409 19 ft 6 kts 43°
2026-05-04 17:50 43.64794 7.20415 19 ft 0 kts 43°
2026-05-04 17:51 43.64818 7.20447 19 ft 20 kts 45°
2026-05-04 17:51 43.65193 7.20965 20 ft 125 kts 45°
2026-05-04 17:51 43.65841 7.21854 603 ft 134 kts 48°
2026-05-04 17:52 43.66446 7.22856 1356 ft 137 kts 65°
2026-05-04 17:52 43.66738 7.24123 2151 ft 143 kts 78°
2026-05-04 17:52 43.67035 7.25536 2754 ft 160 kts 71°
2026-05-04 17:52 43.66891 7.27084 3339 ft 180 kts 122°
2026-05-04 17:53 43.65889 7.28248 4174 ft 196 kts 146°
2026-05-04 17:53 43.64659 7.29123 5188 ft 201 kts 148°
2026-05-04 17:53 43.63579 7.30334 6142 ft 205 kts 121°
2026-05-04 17:53 43.63257 7.32251 7098 ft 210 kts 92°
2026-05-04 17:54 43.63670 7.34222 8068 ft 224 kts 61°
2026-05-04 17:54 43.64868 7.35662 9054 ft 238 kts 26°
2026-05-04 17:54 43.66501 7.35904 10013 ft 246 kts 347°
2026-05-04 17:54 43.68054 7.34864 10666 ft 257 kts 324°
2026-05-04 17:55 43.69549 7.33329 11127 ft 279 kts 320°
2026-05-04 17:55 43.71162 7.31649 11548 ft 303 kts 321°
2026-05-04 17:55 43.72959 7.29905 11854 ft 328 kts 323°
2026-05-04 17:55 43.74907 7.28038 12025 ft 354 kts 322°
2026-05-04 17:56 43.76974 7.26012 12446 ft 367 kts 322°
2026-05-04 17:56 43.79060 7.23950 13366 ft 367 kts 322°
2026-05-04 17:56 43.81154 7.21892 14111 ft 371 kts 321°
2026-05-04 17:56 43.83249 7.19839 14760 ft 375 kts 321°
2026-05-04 17:57 43.85390 7.17733 15417 ft 378 kts 321°
2026-05-04 17:57 43.87545 7.15608 16071 ft 383 kts 321°
2026-05-04 17:57 43.89729 7.13454 16776 ft 387 kts 321°
2026-05-04 17:57 43.91935 7.11279 17540 ft 391 kts 321°
2026-05-04 17:58 43.94171 7.09072 18260 ft 396 kts 321°
2026-05-04 17:58 43.96427 7.06839 18926 ft 400 kts 321°
2026-05-04 17:58 43.98704 7.04586 19635 ft 403 kts 321°
2026-05-04 17:58 44.00997 7.02317 20360 ft 406 kts 321°
2026-05-04 17:59 44.03311 7.00023 21115 ft 410 kts 321°
2026-05-04 17:59 44.05647 6.97705 21832 ft 413 kts 321°
2026-05-04 17:59 44.10368 6.93011 23253 ft 420 kts 321°
2026-05-04 18:00 44.12770 6.90666 23880 ft 425 kts 323°
2026-05-04 18:00 44.15518 6.89031 24365 ft 437 kts 341°
2026-05-04 18:00 44.18499 6.88349 24957 ft 442 kts 349°
2026-05-04 18:00 44.21573 6.87910 25493 ft 447 kts 351°
2026-05-04 18:01 44.24686 6.87510 25996 ft 451 kts 351°
2026-05-04 18:01 44.27816 6.87032 26532 ft 454 kts 349°
2026-05-04 18:01 44.30964 6.86512 27064 ft 458 kts 349°
2026-05-04 18:02 44.37363 6.85566 28129 ft 466 kts 349°
2026-05-04 18:02 44.40604 6.85082 28633 ft 471 kts 349°
2026-05-04 18:02 44.43868 6.84569 29150 ft 474 kts 349°
2026-05-04 18:02 44.47171 6.84058 29673 ft 479 kts 350°
2026-05-04 18:03 44.50504 6.83559 30133 ft 484 kts 350°
2026-05-04 18:03 44.53874 6.83053 30605 ft 488 kts 350°
2026-05-04 18:03 44.57255 6.82533 31080 ft 490 kts 349°
2026-05-04 18:03 44.60638 6.82011 31729 ft 488 kts 349°
2026-05-04 18:04 44.64004 6.81499 32377 ft 486 kts 349°
2026-05-04 18:04 44.67363 6.80988 33031 ft 484 kts 349°
2026-05-04 18:04 44.74039 6.79961 34348 ft 481 kts 348°
2026-05-04 18:05 44.77357 6.79450 34940 ft 479 kts 348°
2026-05-04 18:05 44.80685 6.78985 35532 ft 479 kts 351°
2026-05-04 18:05 44.84013 6.78753 36143 ft 478 kts 353°
2026-05-04 18:05 44.87329 6.78571 36686 ft 476 kts 353°
2026-05-04 18:06 44.93913 6.78126 37133 ft 486 kts 352°
2026-05-04 18:06 44.97336 6.77882 37130 ft 498 kts 353°
2026-05-04 18:06 45.00838 6.77665 37147 ft 509 kts 353°
2026-05-04 18:07 45.08028 6.77200 37142 ft 523 kts 353°
2026-05-04 18:07 45.15372 6.76704 37133 ft 533 kts 353°
2026-05-04 18:08 45.22830 6.76219 37120 ft 538 kts 353°
2026-05-04 18:08 45.30304 6.75713 37110 ft 537 kts 353°
2026-05-04 18:09 45.45288 6.74712 37104 ft 539 kts 353°
2026-05-04 18:10 45.52789 6.74205 37094 ft 539 kts 353°
2026-05-04 18:10 45.60237 6.73690 37098 ft 540 kts 353°
2026-05-04 18:11 45.67735 6.73181 37078 ft 538 kts 353°
2026-05-04 18:11 45.75231 6.72659 37072 ft 540 kts 353°
2026-05-04 18:12 45.82736 6.72146 37060 ft 539 kts 353°
2026-05-04 18:12 45.90233 6.71638 37079 ft 539 kts 353°
2026-05-04 18:13 45.97765 6.71125 37052 ft 542 kts 353°
2026-05-04 18:14 46.09081 6.70354 37055 ft 542 kts 353°
2026-05-04 18:14 46.16361 6.68471 37041 ft 531 kts 338°
2026-05-04 18:15 46.30350 6.61567 37036 ft 533 kts 338°
2026-05-04 18:16 46.37334 6.58071 37048 ft 530 kts 336°
2026-05-04 18:16 46.44351 6.54676 37043 ft 531 kts 338°
2026-05-04 18:17 46.54808 6.49503 37040 ft 531 kts 337°
2026-05-04 18:18 46.65358 6.44331 37037 ft 534 kts 336°
2026-05-04 18:18 46.72383 6.40847 37042 ft 535 kts 337°
2026-05-04 18:19 46.82943 6.35603 37033 ft 534 kts 337°
2026-05-04 18:19 46.89983 6.32104 37029 ft 534 kts 337°
2026-05-04 18:20 46.97019 6.28584 37026 ft 534 kts 337°
2026-05-04 18:20 47.04020 6.25079 37024 ft 535 kts 337°
2026-05-04 18:21 47.10820 6.20755 37008 ft 530 kts 329°
2026-05-04 18:21 47.17417 6.15881 37019 ft 532 kts 330°
2026-05-04 18:22 47.24092 6.11142 37011 ft 533 kts 330°
2026-05-04 18:22 47.30709 6.06327 37003 ft 535 kts 332°
2026-05-04 18:23 47.37917 6.03354 36998 ft 544 kts 349°
2026-05-04 18:23 47.45539 6.03167 37013 ft 549 kts
2026-05-04 18:24 47.53163 6.03862 37019 ft 548 kts 359°
2026-05-04 18:24 47.60788 6.03724 37015 ft 548 kts 357°
2026-05-04 18:25 47.68369 6.04078 37007 ft 548 kts 359°
2026-05-04 18:25 47.75980 6.04150 37007 ft 547 kts 357°
2026-05-04 18:26 47.83593 6.04455 37012 ft 548 kts 359°
2026-05-04 18:26 47.89928 6.04651 37013 ft 547 kts 358°
2026-05-04 18:27 47.97542 6.04846 37013 ft 547 kts 359°
2026-05-04 18:27 48.05162 6.05123 37007 ft 547 kts 358°
2026-05-04 18:28 48.12784 6.05328 37007 ft 547 kts 359°
2026-05-04 18:28 48.20392 6.05593 37003 ft 547 kts 359°
2026-05-04 18:29 48.27960 6.05811 37010 ft 547 kts 359°
2026-05-04 18:29 48.35625 6.06092 36997 ft 547 kts 359°
2026-05-04 18:30 48.47001 6.06663 36998 ft 547 kts 359°
2026-05-04 18:31 48.54628 6.07009 37003 ft 548 kts 360°
2026-05-04 18:31 48.62214 6.07381 36996 ft 548 kts 359°
2026-05-04 18:32 48.69832 6.07733 36994 ft 548 kts 360°
2026-05-04 18:32 48.77456 6.08104 36998 ft 548 kts 360°
2026-05-04 18:33 48.85078 6.08462 36979 ft 548 kts 360°
2026-05-04 18:33 48.92709 6.08834 36980 ft 548 kts 360°
2026-05-04 18:34 49.00349 6.09197 36971 ft 549 kts 360°
2026-05-04 18:34 49.07935 6.09566 36978 ft 548 kts 360°
2026-05-04 18:35 49.15564 6.09933 36986 ft 549 kts 360°
2026-05-04 18:35 49.23201 6.10305 36995 ft 549 kts 360°
2026-05-04 18:36 49.30844 6.10676 36984 ft 549 kts 360°
2026-05-04 18:36 49.38495 6.11051 36978 ft 551 kts 360°
2026-05-04 18:37 49.46103 6.10284 36959 ft 546 kts 346°
2026-05-04 18:37 49.53140 6.06430 36956 ft 538 kts 329°
2026-05-04 18:38 49.59252 5.99938 36969 ft 531 kts 317°
2026-05-04 18:38 49.64964 5.92685 36972 ft 533 kts 319°
2026-05-04 18:39 49.71152 5.86309 36991 ft 536 kts 324°
2026-05-04 18:39 49.77265 5.79726 36971 ft 534 kts 319°
2026-05-04 18:40 49.83336 5.73071 36974 ft 536 kts 323°
2026-05-04 18:40 49.89460 5.66513 36971 ft 534 kts 320°
2026-05-04 18:41 49.95520 5.59809 36972 ft 536 kts 322°
2026-05-04 18:41 50.01641 5.53198 36973 ft 535 kts 321°
2026-05-04 18:42 50.07706 5.46476 36974 ft 537 kts 321°
2026-05-04 18:42 50.13785 5.39836 36973 ft 536 kts 321°
2026-05-04 18:43 50.19838 5.33116 36975 ft 536 kts 321°
2026-05-04 18:43 50.25967 5.26352 36974 ft 536 kts 321°
2026-05-04 18:44 50.32047 5.19578 36969 ft 536 kts 321°
2026-05-04 18:44 50.38125 5.12814 36970 ft 536 kts 321°
2026-05-04 18:45 50.44204 5.06008 36969 ft 535 kts 321°
2026-05-04 18:45 50.50257 4.99222 36972 ft 535 kts 321°
2026-05-04 18:46 50.56265 4.92456 36965 ft 534 kts 321°
2026-05-04 18:46 50.62305 4.85637 36959 ft 534 kts 321°
2026-05-04 18:47 50.68344 4.78795 36965 ft 534 kts 321°
2026-05-04 18:47 50.74376 4.71939 36958 ft 534 kts 321°
2026-05-04 18:48 50.80408 4.65062 36969 ft 534 kts 321°
2026-05-04 18:48 50.86424 4.58177 36970 ft 533 kts 321°
2026-05-04 18:49 50.91722 4.50122 36956 ft 526 kts 305°
2026-05-04 18:49 50.95569 4.40342 36968 ft 522 kts 296°
2026-05-04 18:50 50.99194 4.30338 36971 ft 524 kts 300°
2026-05-04 18:50 51.03052 4.20776 36768 ft 487 kts 297°
2026-05-04 18:50 51.04699 4.16246 36406 ft 460 kts 296°
2026-05-04 18:51 51.06280 4.11969 35310 ft 453 kts 297°
2026-05-04 18:51 51.07968 4.07654 33817 ft 456 kts 298°
2026-05-04 18:51 51.09903 4.03698 32041 ft 463 kts 309°
2026-05-04 18:51 51.12288 4.00206 29973 ft 456 kts 320°
2026-05-04 18:52 51.14830 3.97267 27572 ft 455 kts 323°
2026-05-04 18:52 51.17350 3.94363 25584 ft 437 kts 322°
2026-05-04 18:52 51.19746 3.91484 23505 ft 429 kts 322°
2026-05-04 18:52 51.22216 3.88744 21959 ft 426 kts 331°
2026-05-04 18:53 51.24950 3.87177 20759 ft 412 kts 348°
2026-05-04 18:53 51.27796 3.86957 19987 ft 408 kts
2026-05-04 18:53 51.30521 3.87896 19469 ft 396 kts 15°
2026-05-04 18:53 51.33139 3.89166 19016 ft 389 kts 17°
2026-05-04 18:54 51.35723 3.90319 18560 ft 385 kts 14°
2026-05-04 18:54 51.38330 3.91293 18098 ft 381 kts 12°
2026-05-04 18:54 51.40890 3.92282 17574 ft 377 kts 14°
2026-05-04 18:54 51.43390 3.93350 17068 ft 377 kts 15°
2026-05-04 18:55 51.45950 3.94441 16562 ft 374 kts 14°
2026-05-04 18:55 51.50935 3.96455 15599 ft 371 kts 14°
2026-05-04 18:55 51.53448 3.97499 15130 ft 369 kts 14°
2026-05-04 18:56 51.55935 3.98538 14676 ft 368 kts 14°
2026-05-04 18:56 51.58403 3.99556 14231 ft 365 kts 14°
2026-05-04 18:56 51.60860 4.00567 13793 ft 363 kts 14°
2026-05-04 18:56 51.63268 4.01566 13317 ft 362 kts 14°
2026-05-04 18:57 51.65694 4.02576 12843 ft 358 kts 14°
2026-05-04 18:57 51.68096 4.03573 12377 ft 356 kts 14°
2026-05-04 18:57 51.70494 4.04568 11924 ft 354 kts 14°
2026-05-04 18:57 51.72873 4.05559 11471 ft 352 kts 14°
2026-05-04 18:58 51.75226 4.06540 11045 ft 343 kts 14°
2026-05-04 18:58 51.77449 4.07468 10607 ft 318 kts 14°
2026-05-04 18:58 51.79531 4.08337 10164 ft 300 kts 14°
2026-05-04 18:58 51.81497 4.09159 9960 ft 283 kts 14°
2026-05-04 18:59 51.83413 4.09960 9962 ft 287 kts 14°
2026-05-04 18:59 51.85353 4.10772 9963 ft 289 kts 14°
2026-05-04 18:59 51.87306 4.11591 9967 ft 290 kts 14°
2026-05-04 18:59 51.89244 4.12406 9975 ft 301 kts 14°
2026-05-04 19:00 51.91090 4.13799 9909 ft 286 kts 38°
2026-05-04 19:00 51.92358 4.16220 9957 ft 285 kts 58°
2026-05-04 19:00 51.93355 4.19023 9984 ft 289 kts 61°
2026-05-04 19:00 51.94343 4.21869 9978 ft 290 kts 60°
2026-05-04 19:01 51.95354 4.24708 9877 ft 292 kts 60°
2026-05-04 19:01 51.96376 4.27554 9503 ft 287 kts 60°
2026-05-04 19:01 51.97345 4.30280 9134 ft 272 kts 59°
2026-05-04 19:01 51.98269 4.32893 8781 ft 260 kts 60°
2026-05-04 19:02 51.99151 4.35382 8446 ft 249 kts 59°
2026-05-04 19:02 52.00001 4.37779 8121 ft 241 kts 59°
2026-05-04 19:02 52.00813 4.40075 7821 ft 234 kts 59°
2026-05-04 19:02 52.01612 4.42335 7521 ft 228 kts 59°
2026-05-04 19:03 52.02391 4.44542 7225 ft 223 kts 59°
2026-05-04 19:03 52.03153 4.46703 6940 ft 218 kts 59°
2026-05-04 19:03 52.03903 4.48829 6662 ft 215 kts 59°
2026-05-04 19:03 52.04639 4.50917 6383 ft 212 kts 59°
2026-05-04 19:04 52.05364 4.52977 6094 ft 209 kts 59°
2026-05-04 19:04 52.06065 4.54972 5818 ft 199 kts 59°
2026-05-04 19:04 52.06739 4.56889 5562 ft 190 kts 59°
2026-05-04 19:04 52.07383 4.58724 5304 ft 183 kts 59°
2026-05-04 19:05 52.08001 4.60486 5067 ft 178 kts 59°
2026-05-04 19:05 52.08674 4.62399 4844 ft 214 kts 59°
2026-05-04 19:05 52.09455 4.64624 4553 ft 231 kts 59°
2026-05-04 19:05 52.10249 4.66894 4234 ft 231 kts 59°
2026-05-04 19:06 52.11039 4.69158 3916 ft 229 kts 59°
2026-05-04 19:06 52.11822 4.71399 3607 ft 226 kts 59°
2026-05-04 19:06 52.12596 4.73614 3304 ft 229 kts 59°
2026-05-04 19:06 52.13547 4.75484 2928 ft 210 kts 35°
2026-05-04 19:07 52.14831 4.76356 2682 ft 193 kts 11°
2026-05-04 19:07 52.16116 4.76523 2522 ft 180 kts
2026-05-04 19:07 52.17342 4.76642 2341 ft 175 kts
2026-05-04 19:07 52.18565 4.76755 2102 ft 176 kts
2026-05-04 19:08 52.19763 4.76865 1868 ft 172 kts
2026-05-04 19:08 52.20935 4.76972 1638 ft 166 kts
2026-05-04 19:08 52.22082 4.77077 1403 ft 165 kts
2026-05-04 19:08 52.23176 4.77181 1169 ft 142 kts
2026-05-04 19:09 52.24059 4.77260 989 ft 116 kts
2026-05-04 19:09 52.24832 4.77330 859 ft 107 kts
2026-05-04 19:09 52.25587 4.77409 736 ft 112 kts
2026-05-04 19:09 52.26366 4.77476 607 ft 110 kts
2026-05-04 19:10 52.27138 4.77549 488 ft 112 kts
2026-05-04 19:10 52.27928 4.77597 395 ft 115 kts
2026-05-04 19:10 52.28706 4.77596 287 ft 109 kts 360°
2026-05-04 19:10 52.29432 4.77732 196 ft 105 kts 18°
2026-05-04 19:11 52.30056 4.78384 36 ft 109 kts 38°
2026-05-04 19:11 52.30591 4.79141 -7 ft 89 kts 40°
2026-05-04 19:11 52.30990 4.79708 -8 ft 63 kts 40°
2026-05-04 19:11 52.31232 4.80057 -6 ft 33 kts 41°
2026-05-04 19:12 52.31365 4.80243 -5 ft 15 kts 39°
2026-05-04 19:12 52.31305 4.80450 -4 ft 9 kts 129°
2026-05-04 19:12 52.31290 4.80509 -4 ft 4 kts 62°
2026-05-04 19:13 52.31285 4.80527 -4 ft 2 kts 158°
2026-05-04 19:13 52.31250 4.80538 -4 ft 8 kts 147°
2026-05-04 19:13 52.31205 4.80541 -4 ft 7 kts 220°
2026-05-04 19:13 52.31171 4.80489 -4 ft 7 kts 223°
2026-05-04 19:14 52.31134 4.80450 -4 ft 5 kts 167°
2026-05-04 19:14 52.31119 4.80474 -4 ft 0 kts 131°
2026-05-04 19:18 52.31120 4.80474 -4 ft 0 kts 131°